Wind_Speed
3 4 4 4 5 5 4 3 2 3 3 4 4 4 5 5 6 6 6 6 6 6 6 6 6 7 6 6 5 5 5 4 5 4 4 4 4 4 5 5 5 5 5
3 4 4 4 4 4 5 4 4 4 5 5 6 6 6 6 6 6 7 7 7 7 7 6 7 7 8 7 7 6 5 5 6 5 5 5 5 5 5 5 6 6 6
4 4 4 4 4 5 5 5 5 5 6 7 7 7 7 7 7 7 7 8 9 8 7 7 7 8 7 7 7 7 7 6 6 6 6 6 6 6 6 6 7 7 7
4 5 5 5 5 6 6 6 6 6 6 7 7 7 7 8 8 8 8 8 8 8 8 8 8 7 7 7 6 6 7 7 7 7 7 7 7 7 7 7 7 8 7
5 6 6 6 6 6 7 7 7 7 6 7 7 7 7 8 9 9 7 6 6 6 7 8 8 8 8 7 7 7 7 7 7 7 7 7 7 7 8 8 8 8 8
6 6 6 7 7 7 7 7 7 7 7 6 6 7 7 8 8 8 7 6 6 6 7 8 9 9 8 8 7 7 7 7 7 6 6 7 7 8 8 9 9 9 8
6 6 7 8 8 8 8 7 7 7 7 7 7 7 7 7 8 8 8 7 7 7 7 8 8 8 8 7 7 7 7 7 7 7 6 6 7 8 8 8 9 9 9
6 7 7 8 8 8 8 8 8 7 7 7 7 7 7 7 7 8 8 7 7 7 7 7 7 7 7 7 7 7 7 7 7 7 6 7 7 8 8 8 8 8 8
7 8 8 8 8 8 8 8 8 8 8 7 7 8 8 7 7 7 8 7 7 7 7 7 7 7 7 7 7 7 8 7 6 6 6 7 7 7 8 7 7 8 8
8 9 9 9 8 8 8 8 8 9 8 8 8 8 8 8 8 8 7 7 7 7 7 7 7 6 6 6 6 6 5 5 5 5 5 6 6 7 7 7 7 7 7
9 10 10 9 9 8 8 9 8 9 9 9 8 8 8 8 8 8 7 7 7 6 6 6 6 6 6 6 6 6 6 5 5 5 6 6 6 6 6 7 7 7 7
10 10 10 10 9 9 9 9 9 9 9 9 8 8 8 8 8 8 7 7 7 6 6 6 6 6 5 6 6 6 6 6 6 6 6 6 6 6 6 6 6 6 6
10 10 10 10 10 10 9 9 9 9 9 9 9 9 9 8 9 8 8 7 7 6 6 6 6 6 5 6 6 7 7 7 7 7 7 7 7 7 7 7 6 6 7
10 10 10 9 9 10 8 8 9 10 9 9 10 10 10 9 9 9 8 7 7 7 6 6 6 5 5 6 6 7 6 7 8 8 8 8 7 7 7 7 7 7 8
10 9 9 9 9 9 9 9 10 10 10 10 10 10 10 9 8 8 7 7 7 7 6 6 6 5 6 6 6 7 7 7 8 8 8 8 7 7 7 7 7 8 8
9 9 8 8 8 8 9 9 10 10 10 10 10 9 9 8 7 7 7 7 7 7 7 6 6 6 7 6 6 6 7 8 7 7 8 8 8 7 7 7 8 8 8
9 8 8 8 9 9 9 9 10 10 10 9 8 8 8 7 7 7 7 7 7 7 7 7 7 7 7 7 7 8 8 8 8 8 8 8 9 8 8 8 8 9 9
9 9 9 9 9 9 9 9 9 9 9 8 8 8 8 8 7 7 7 7 6 6 6 7 7 8 8 8 9 9 9 9 8 8 9 9 9 9 9 9 9 9 9
10 10 10 10 10 9 9 9 9 9 9 8 8 8 8 7 8 7 7 7 7 7 7 8 8 8 8 8 9 9 9 9 9 9 9 9 9 9 9 10 10 10 10
10 11 10 10 10 9 9 10 10 10 9 8 8 8 8 8 8 7 7 8 7 7 8 8 8 8 8 8 8 9 9 9 9 9 9 9 10 10 10 10 11 11 10
10 11 11 10 9 9 9 9 9 9 9 9 9 9 8 8 8 7 7 7 8 7 8 8 9 9 9 9 9 9 9 9 9 9 10 10 10 11 11 11 11 10 10
9 10 10 9 9 9 10 10 9 10 10 10 10 9 9 9 8 8 8 8 8 8 8 9 9 10 10 9 9 9 10 10 10 9 10 10 10 11 11 11 11 11 11
8 8 8 8 8 9 9 9 9 9 9 9 9 9 9 9 9 9 9 9 9 9 10 10 10 10 10 10 10 10 10 10 10 10 10 10 11 11 11 11 11 11 11
8 8 8 8 8 8 8 8 9 9 9 9 10 10 10 9 10 10 10 10 10 10 10 10 11 11 11 11 11 11 11 10 10 10 11 11 11 11 11 11 12 12 12
9 9 9 9 8 8 8 9 9 9 9 9 10 10 10 10 10 10 10 11 11 11 10 11 11 11 11 10 11 10 10 10 10 10 10 11 11 12 12 12 12 12 12
9 9 9 9 9 9 9 9 9 9 9 10 10 10 9 9 9 10 10 11 11 11 11 12 11 10 10 10 10 10 10 11 11 11 10 10 10 11 11 12 12 12 12
Wind_Direction
12 14 13 20 15 10 7 0 338 319 304 298 296 295 297 294 290 285 281 278 271 268 268 270 268 265 267 263 259 261 265 262 255 260 264 264 265 268 273 282 280 281 278
346 350 352 353 350 352 351 340 329 314 306 299 290 289 293 295 294 288 283 280 271 266 265 267 267 264 265 264 261 264 265 263 262 265 263 261 268 275 279 288 286 283 282
324 329 333 337 342 339 338 333 328 316 306 298 291 289 292 292 293 290 288 284 274 263 261 264 269 269 270 267 267 266 265 264 261 264 261 262 267 273 279 281 285 280 279
314 318 320 319 323 321 322 321 322 317 312 305 294 289 288 290 289 289 291 289 280 262 259 267 272 274 273 270 270 269 269 266 263 266 264 264 267 270 274 278 284 283 281
306 309 310 313 310 309 314 316 318 316 311 305 301 295 289 287 284 283 289 291 281 261 259 264 271 276 276 270 269 270 270 269 270 273 266 264 267 272 274 277 281 282 280
306 309 308 308 308 306 307 310 309 309 307 300 295 295 292 289 289 284 286 286 279 271 266 266 268 271 272 272 271 271 271 273 271 274 273 264 268 274 275 275 277 281 280
305 310 309 306 307 304 304 304 303 300 299 299 297 295 297 292 288 288 284 281 279 278 275 272 268 268 268 270 268 270 273 274 275 272 274 272 274 275 275 275 275 280 278
303 307 307 305 304 304 302 302 300 298 297 296 296 296 293 292 290 290 283 284 284 281 279 274 269 268 264 266 266 269 271 277 278 274 274 277 276 274 274 276 277 277 276
297 300 302 302 303 302 299 299 300 298 295 292 291 291 290 291 290 287 284 283 280 280 279 274 272 269 267 267 268 268 271 278 277 268 269 272 276 276 274 273 274 273 274
293 294 295 297 297 295 295 299 296 295 293 290 288 288 287 286 286 286 286 287 284 279 277 276 273 269 265 267 272 269 273 277 275 270 265 270 273 273 274 274 269 265 265
291 291 292 294 292 289 288 293 293 293 289 288 285 281 280 281 281 282 282 282 281 281 281 278 276 279 273 270 273 271 269 275 272 268 267 271 271 270 272 274 271 266 262
289 288 288 288 287 283 281 284 284 285 286 285 283 277 277 278 281 278 276 277 281 280 278 279 286 280 277 272 272 269 270 271 268 267 269 272 271 269 268 275 274 269 264
287 288 289 285 284 281 280 280 280 282 284 285 283 282 281 282 286 280 277 272 275 274 275 285 289 290 284 278 275 273 273 272 270 266 269 270 270 271 271 273 274 276 270
287 285 285 281 283 283 284 283 282 282 283 283 279 280 281 284 285 283 282 277 275 281 283 286 293 289 282 278 278 278 279 277 271 268 268 267 271 273 273 272 273 275 273
288 284 283 280 282 283 284 285 283 282 280 280 280 280 281 284 287 287 291 288 286 288 287 287 287 286 283 278 279 281 281 278 271 268 265 265 271 275 273 272 272 274 273
289 288 287 283 279 280 280 283 286 284 282 280 280 280 281 280 280 282 284 284 284 284 282 279 280 282 284 282 282 286 285 281 274 267 267 267 271 274 275 274 274 277 278
289 291 289 287 283 280 282 286 287 285 282 277 277 281 283 279 277 277 278 278 279 279 279 278 280 280 282 282 287 286 287 284 276 272 272 270 270 272 271 273 275 276 277
284 288 289 288 286 284 283 282 283 283 281 277 272 276 282 285 284 278 275 278 279 278 279 283 283 284 283 283 284 283 286 286 278 275 274 273 271 272 270 273 276 277 278
279 283 287 286 286 282 278 276 280 281 279 278 275 273 277 283 282 277 275 275 276 276 279 285 289 288 285 283 283 281 282 282 278 277 274 274 272 271 270 273 275 277 278
284 287 287 284 284 280 277 278 279 280 276 277 276 272 276 277 279 275 272 273 274 277 279 280 285 285 285 283 282 279 279 279 278 277 276 274 271 270 270 271 273 275 275
289 290 287 283 281 280 279 280 281 279 279 279 279 279 276 272 272 272 273 274 280 283 282 282 284 287 286 281 279 279 278 277 277 276 277 274 272 271 272 272 272 272 274
288 290 286 282 280 279 277 275 280 279 277 274 275 276 275 268 265 266 270 273 279 281 282 285 288 290 287 284 283 282 280 277 276 274 276 276 276 273 273 274 272 272 271
288 290 289 287 284 282 279 274 275 276 274 272 272 273 273 269 263 263 268 273 278 282 283 285 287 289 289 287 286 286 285 283 277 276 277 278 280 275 273 275 272 272 271
285 287 287 287 286 282 279 277 274 273 273 272 270 272 273 268 265 267 269 273 279 281 282 284 286 288 289 287 284 284 287 288 285 283 282 280 279 276 274 274 275 273 270
282 283 286 286 285 283 281 281 278 276 274 274 272 274 273 267 266 272 274 274 274 276 278 283 284 284 286 285 284 283 284 288 288 289 288 285 280 276 275 276 276 273 271
278 280 283 287 284 282 282 282 282 280 277 277 276 273 271 272 273 274 278 276 274 276 279 281 281 283 283 285 286 285 284 285 287 289 289 286 282 280 280 279 277 274 273
Height
5890 5890 5889 5888 5887 5886 5885 5884 5884 5884 5884 5884 5883 5883 5883 5882 5881 5880 5880 5879 5878 5878 5878 5878 5878 5877 5877 5877 5876 5876 5876 5876 5876 5875 5875 5875 5875 5874 5874 5873 5872 5872 5870
5890 5889 5889 5888 5887 5886 5886 5885 5885 5884 5884 5884 5883 5882 5882 5881 5880 5879 5879 5877 5877 5876 5876 5876 5876 5876 5876 5875 5875 5875 5875 5875 5875 5874 5874 5874 5874 5874 5873 5873 5872 5871 5869
5890 5889 5889 5888 5887 5887 5886 5885 5885 5884 5884 5883 5882 5882 5881 5880 5879 5878 5877 5875 5873 5873 5875 5875 5875 5875 5875 5874 5874 5874 5874 5874 5874 5874 5874 5873 5873 5873 5872 5872 5871 5870 5869
5889 5889 5888 5887 5887 5886 5886 5885 5884 5884 5883 5882 5881 5881 5880 5879 5878 5877 5875 5872 5869 5870 5872 5874 5874 5874 5874 5873 5873 5873 5873 5872 5872 5872 5872 5872 5872 5872 5871 5871 5870 5869 5868
5888 5888 5887 5887 5886 5886 5885 5884 5884 5883 5882 5881 5880 5879 5879 5878 5877 5876 5874 5872 5869 5869 5871 5872 5873 5873 5872 5872 5872 5872 5871 5871 5871 5871 5871 5871 5871 5871 5870 5870 5869 5869 5868
5887 5887 5886 5886 5885 5885 5884 5883 5883 5882 5881 5880 5879 5878 5878 5877 5876 5875 5874 5872 5871 5870 5871 5871 5871 5871 5871 5871 5871 5870 5870 5870 5870 5870 5870 5870 5869 5869 5869 5868 5868 5867 5867
5886 5886 5885 5885 5884 5883 5883 5882 5881 5880 5880 5879 5878 5877 5876 5875 5874 5874 5872 5872 5871 5870 5870 5870 5870 5870 5870 5869 5869 5869 5869 5869 5868 5868 5868 5868 5868 5867 5867 5867 5866 5866 5865
5885 5884 5884 5883 5883 5882 5881 5881 5880 5879 5878 5877 5877 5876 5875 5874 5873 5872 5871 5871 5870 5869 5869 5869 5869 5868 5868 5868 5868 5868 5867 5867 5867 5867 5867 5867 5866 5866 5865 5865 5865 5864 5864
5884 5883 5882 5882 5881 5881 5880 5879 5879 5878 5877 5876 5875 5874 5874 5873 5872 5871 5870 5869 5869 5868 5868 5867 5867 5867 5867 5866 5866 5866 5866 5865 5865 5865 5865 5865 5865 5864 5864 5864 5863 5863 5862
5882 5881 5881 5880 5880 5879 5878 5878 5877 5876 5875 5874 5874 5873 5872 5871 5870 5870 5869 5868 5867 5867 5866 5866 5865 5865 5865 5865 5864 5864 5864 5864 5864 5864 5863 5863 5863 5862 5862 5862 5862 5861 5861
5880 5879 5879 5878 5878 5877 5877 5876 5875 5874 5873 5873 5872 5871 5870 5869 5869 5868 5867 5866 5866 5865 5865 5864 5864 5864 5864 5863 5863 5863 5863 5863 5862 5862 5862 5861 5861 5861 5860 5860 5860 5860 5859
5878 5877 5877 5876 5876 5875 5874 5874 5873 5872 5871 5871 5870 5869 5868 5867 5867 5866 5865 5865 5864 5864 5863 5863 5863 5863 5862 5862 5862 5861 5861 5861 5861 5860 5860 5860 5859 5859 5859 5858 5858 5858 5858
5876 5875 5874 5874 5873 5872 5872 5871 5871 5870 5869 5869 5868 5867 5866 5865 5864 5864 5863 5863 5862 5862 5862 5861 5861 5861 5861 5861 5860 5860 5860 5859 5859 5859 5858 5858 5858 5857 5857 5857 5857 5856 5856
5873 5873 5872 5871 5871 5870 5869 5869 5868 5867 5867 5866 5865 5865 5864 5863 5862 5862 5862 5861 5861 5860 5860 5860 5860 5859 5859 5859 5859 5858 5858 5857 5857 5857 5857 5856 5856 5856 5855 5855 5855 5855 5855
5871 5870 5869 5869 5868 5867 5867 5866 5866 5865 5864 5864 5863 5862 5862 5861 5860 5860 5860 5859 5859 5859 5859 5858 5858 5858 5858 5857 5857 5857 5856 5856 5855 5855 5855 5854 5854 5854 5854 5853 5853 5853 5853
5868 5867 5867 5866 5865 5865 5864 5864 5863 5862 5862 5861 5861 5860 5860 5859 5859 5858 5858 5858 5858 5857 5857 5857 5857 5856 5856 5856 5855 5855 5854 5854 5853 5853 5853 5853 5852 5852 5852 5851 5851 5851 5850
5865 5865 5864 5863 5863 5862 5861 5861 5860 5860 5859 5859 5858 5858 5857 5857 5857 5857 5857 5856 5856 5856 5855 5855 5855 5855 5854 5854 5853 5853 5852 5852 5851 5851 5851 5850 5850 5850 5850 5849 5849 5849 5848
5863 5862 5861 5861 5860 5859 5859 5858 5858 5857 5856 5856 5856 5855 5855 5855 5855 5855 5855 5854 5854 5854 5853 5853 5853 5853 5852 5851 5851 5851 5850 5850 5850 5849 5848 5848 5848 5848 5847 5847 5847 5846 5846
5860 5859 5859 5858 5857 5857 5856 5855 5855 5854 5854 5853 5853 5853 5853 5853 5853 5853 5852 5852 5852 5852 5852 5851 5851 5850 5850 5849 5849 5849 5848 5848 5847 5847 5846 5846 5845 5845 5845 5845 5844 5844 5843
5857 5857 5856 5855 5855 5854 5853 5853 5852 5852 5851 5851 5851 5851 5850 5850 5850 5850 5850 5850 5850 5850 5849 5849 5849 5848 5848 5847 5847 5846 5846 5845 5845 5844 5843 5843 5842 5842 5842 5842 5842 5841 5841
5855 5854 5853 5852 5852 5851 5851 5850 5850 5849 5848 5848 5848 5848 5848 5848 5848 5848 5848 5848 5848 5848 5847 5847 5846 5846 5845 5845 5845 5844 5843 5843 5842 5842 5841 5840 5840 5839 5839 5839 5839 5838 5838
5853 5852 5851 5850 5849 5848 5848 5847 5847 5846 5846 5845 5845 5845 5845 5845 5845 5846 5846 5846 5845 5845 5845 5844 5844 5843 5842 5842 5841 5841 5841 5841 5839 5839 5838 5837 5837 5836 5836 5835 5835 5835 5835
5850 5849 5848 5847 5846 5845 5845 5844 5844 5843 5843 5843 5843 5843 5842 5842 5843 5843 5843 5843 5843 5842 5842 5841 5841 5840 5839 5839 5838 5838 5837 5837 5836 5836 5835 5834 5834 5833 5833 5832 5832 5832 5832
5848 5847 5845 5844 5844 5843 5842 5842 5841 5841 5841 5840 5840 5840 5839 5839 5840 5840 5840 5840 5840 5839 5839 5838 5838 5837 5836 5835 5835 5834 5834 5833 5833 5832 5832 5831 5830 5830 5830 5829 5829 5828 5828
5845 5844 5843 5842 5841 5840 5840 5839 5839 5838 5838 5837 5837 5837 5837 5837 5837 5837 5837 5837 5837 5836 5836 5835 5834 5834 5833 5832 5832 5831 5831 5830 5830 5829 5828 5828 5827 5827 5826 5826 5825 5825 5824
5843 5842 5841 5840 5838 5838 5837 5836 5836 5836 5835 5835 5834 5834 5834 5834 5834 5834 5834 5834 5833 5833 5833 5832 5831 5831 5830 5829 5829 5828 5828 5827 5827 5826 5825 5825 5824 5823 5823 5822 5822 5821 5821